Regional Weather Roundup
Issued by NWS

Home | Current Version | Previous Version | Text Only | Print | Product List | Glossary Off
Versions: 1 2 3 4 5 6 7 8 9 10 11 12 13 14 15 16 17 18 19 20 21 22 23 24 25 26 27 28 29 30 31 32 33 34 35 36 37 38 39 40 41 42 43 44 45 46 47 48 49 50

000
ASUS43 KMPX 291801
RWRMN
WEATHER ROUNDUP FOR MINNESOTA
NATIONAL WEATHER SERVICE TWIN CITIES/CHANHASSEN MN
100 PM CDT WED JUL 29 2015


NOTE: "FAIR" INDICATES FEW OR NO CLOUDS BELOW 12,000 FEET WITH NO
SIGNIFICANT WEATHER AND/OR OBSTRUCTIONS TO VISIBILITY. N/A MEANS
CURRENT SKY AND/OR WEATHER CONDITIONS ARE NOT AVAILABLE.

MNZ060>063-068>070-291900-
   Twin Cities Metro

CITY           SKY/WX    TMP DP  RH WIND       PRES   REMARKS
TWIN CITIES    FAIR      80  53  39 W22G29    29.94S
6HR MIN TEMP:  67; 6HR MAX TEMP:  80;

ST PAUL        FAIR      79  55  43 W21G35    29.94S
CRYSTAL        FAIR      81  53  37 W20G32    29.93S
BLAINE         MOSUNNY   81  54  39 W26G36    29.93S
LAKEVILLE      FAIR      75  55  50 W18G30    29.98S
EDEN PRAIRIE   FAIR      79  54  41 W15G32    29.95S
6HR MIN TEMP:  64; 6HR MAX TEMP:  79;

SOUTH ST PAUL  FAIR      79  52  38 W15G28    29.95S
LAKE ELMO      FAIR      77  55  47 W20G32    29.95S
$$
MNZ001>005-007-008-013>017-022>024-027-028-291900-
   Northwest Minnesota

CITY           SKY/WX    TMP DP  RH WIND       PRES   REMARKS
BEMIDJI        CLOUDY    73  56  54 W23G32    29.77R
HALLOCK        FAIR      75  52  43 NW25G38   29.71R
ROSEAU         CLOUDY    68  59  73 W13G28    29.67R
WARROAD        CLOUDY    66  59  77 W18G29    29.65R
THIEF RVR FALL PTSUNNY  N/A N/A N/A W24G36    29.75R
CROOKSTON      FAIR      75  54  46 W36G44    29.79R
FOSSTON        FAIR      73  54  49 W31G37    29.80R
DETROIT LAKES  FAIR      73  54  49 NW24G32   29.89R
MOORHEAD       FAIR      75  55  50 W21G31    29.88R
PARK RAPIDS    FAIR      76  53  44 W29G39    29.83R
MAHNOMEN       MOCLDY    74  56  53 W28G39    29.83R
$$
MNZ006-009>011-018-025>026-291900-
   North Central Minnesota

CITY           SKY/WX    TMP DP  RH WIND       PRES   REMARKS
BAUDETTE       CLOUDY    66  57  72 W20G36    29.65R
FLAG ISLAND    CLOUDY    64  57  77 W22G31    29.58R
INTL FALLS     LGT RAIN  63  58  83 W15G26    29.63R
6HR MIN TEMP:  61; 6HR MAX TEMP:  63; 6HR PCP: TRACE;

WASKISH        CLOUDY    66  59  77 W26G35    29.71R
BIG FORK       CLOUDY    64  55  72 W14G24    29.73R
LONGVILLE      PTSUNNY   73  55  53 W17G31    29.79S
GRAND RAPIDS   CLOUDY    70  54  56 W15G30    29.77S
CRANE LAKE     CLOUDY    64  57  77 SW9       29.66R
ORR            CLOUDY    63  55  77 SW12G22   29.67R HAZE
COOK           CLOUDY    63  57  82 SW16G26   29.71R
WALKER         MOCLDY    72  55  53 W22G36    29.78S
$$
MNZ012-019>021-037-291900-
   Northeast Minnesota

CITY           SKY/WX    TMP DP  RH WIND       PRES   REMARKS
DULUTH         CLOUDY    71  54  54 W25G38    29.77R
6HR MIN TEMP:  65; 6HR MAX TEMP:  71;

ELY            CLOUDY    64  55  72 W23G35    29.69R
HIBBING        LGT RAIN  66  55  67 W12G22    29.75R
EVELETH        FAIR      63  54  72 W15G31    29.75R
DULUTH HARBOR  CLOUDY    72  57  60 SW22G30   29.76F
TWO HARBORS    CLOUDY    70  59  68 W13G28    29.73R
SILVER BAY     CLOUDY    70  54  56 SW10G20   29.71R
GRAND MARAIS     N/A     59  52  77 W9        29.66R
G MARAIS ARPRT   N/A     64  52  63 SW12G22   29.69R
$$
MNZ029>031-032-039>041-046>048-054>057-064-291900-
   West Central Minnesota

CITY           SKY/WX    TMP DP  RH WIND       PRES   REMARKS
FERGUS FALLS   FAIR      77  55  47 W26G36    29.90S
WHEATON        FAIR      75  55  50 W22G35    29.96S
MORRIS         FAIR      79  57  47 W24G32    29.95S
ALEXANDRIA     FAIR      77  55  46 W26G33    29.94S
ELBOW LAKE     FAIR      75  56  51 W25G36    29.93S
WADENA         FAIR      75  54  46 W20G37    29.87R
GLENWOOD       FAIR      77  54  44 W31       29.94F
APPLETON       FAIR      81  52  36 W24G32    29.97S
BENSON         FAIR      79  52  38 NW22G28   29.96F
ORTONVILLE     FAIR      79  52  38 W15G32    29.98F
MADISON        FAIR      81  48  32 NW23      30.01S
WILLMAR        FAIR      79  57  47 W21G31    29.99R
$$
MNZ033>034-036-042>043-049>051-058-059-291900-
   Central Minnesota

CITY           SKY/WX    TMP DP  RH WIND       PRES   REMARKS
ST CLOUD       FAIR      79  52  38 W24G36    29.91S
6HR MIN TEMP:  65; 6HR MAX TEMP:  79;

SAUK CENTRE    FAIR      75  55  49 W23G39    29.92S
PAYNESVILLE    FAIR      76  52  43 SW18G31   29.95S
AITKIN         FAIR      75  55  50 W16G30    29.80S
PINE RIVER     FAIR      75  54  46 W16G35    29.85R
BRAINERD       FAIR      76  51  41 W24G37    29.84S
STAPLES        FAIR      75  54  46 W21G35    29.86S
LONG PRAIRIE   FAIR      73  54  49 W20G31    29.92R
LITTLE FALLS   FAIR      75  50  41 W22G31    29.88S
LITCHFIELD     FAIR      79  55  44 W16G28    29.97S
BUFFALO        FAIR      78  54  44 W20G25    29.96S
MAPLE LAKE     FAIR      77  57  50 W10G25    29.95S
$$
MNZ037-044-045-052-053-291900-
   East Central Minnesota

CITY           SKY/WX    TMP DP  RH WIND       PRES   REMARKS
PRINCETON      FAIR      79  54  41 W15G28    29.90S
MORA           FAIR      73  52  46 W20G30    29.88R
CAMBRIDGE      FAIR      79  57  47 W21G32    29.88S
RUSH CITY      FAIR      76  56  49 W13G28    29.88S
MOOSE LAKE     CLOUDY    73  54  49 W16G28    29.79F
HINCKLEY       MOCLDY    75  57  53 W17G29    29.85S
CLOQUET        CLOUDY    72  52  49 W21G29    29.79S
MCGREGOR       PTSUNNY   73  55  53 W15G24    29.80F
$$
MNZ071>073-080-081-089-090-097-098-291900-
   Southwest Minnesota

CITY           SKY/WX    TMP DP  RH WIND       PRES   REMARKS
MONTEVIDEO     FAIR      81  55  41 NW14G26   30.01S
GRANITE FALLS  FAIR      77  55  47 W16G23    30.03S
CANBY          FAIR      79  50  36 W22G29    30.05R
MARSHALL       FAIR      79  52  38 W25G33    30.06S
REDWOOD FALLS  FAIR      81  53  37 W24G32    30.01S
OLIVIA         FAIR      73  54  49 W22G31    30.00S
PIPESTONE      FAIR      77  54  44 W17G26    30.11F
WINDOM         FAIR      79  54  41 W21G29    30.08F
WORTHINGTON    FAIR      75  54  46 W20G25    30.12S
JACKSON        FAIR      79  55  44 W18G28    30.10F
TRACY          FAIR      79  55  44 W10G22    30.07S
SLAYTON        FAIR      76  53  44 W17G28    30.10F
$$
MNZ065>067-074>077-082>085-091>093-291900-
   South Central Minnesota

CITY           SKY/WX    TMP DP  RH WIND       PRES   REMARKS
MANKATO        FAIR      79  55  44 W17G24    30.02F
NEW ULM        FAIR      79  54  41 W23G30    30.02F
ST JAMES       FAIR      81  55  41 W21G28    30.06S
FAIRMONT       FAIR      81  52  36 W18G24    30.07S
GLENCOE        FAIR      78  60  53 W12G29    29.99S
FARIBAULT      FAIR      77  57  50 W16G31    30.01S
OWATONNA       FAIR      77  54  44 W16G32    30.02S
WASECA         FAIR      77  57  50 W18G29    30.05S
ALBERT LEA     FAIR      79  54  41 W13G24    30.05S
$$
MNZ078>079-086>088-094>096-291900-
   Southeast Minnesota

CITY           SKY/WX    TMP DP  RH WIND       PRES   REMARKS
ROCHESTER      FAIR      77  56  48 W24G37    30.02R
6HR MIN TEMP:  62; 6HR MAX TEMP:  77;

RED WING       FAIR      81  50  34 W18G31    29.95R
STANTON        FAIR      78  54  43 W20G31    29.98S
DODGE CENTER   FAIR      77  54  44 W24G35    30.02S
WINONA         FAIR      79  52  38 W17G26    29.97S
AUSTIN         FAIR      79  52  38 W20G30    30.04R
PRESTON        FAIR      76  52  42 W29G38    30.04S
$$
ABBREVIATIONS USED IN REMARKS
   TC - TEMPERATURES IN CELSIUS
  WCI - WIND CHILL INDEX
   HX - HEAT INDEX
  VSB - VISIBILITY
$$



USA.gov is the U.S. government's official web portal to all federal, state and local government web resources and services.